Location: Grand Lay
(47.3253°N, 0.9468°E)
Time: 20:49:51
(UTC+00:00)

COSMOS 2406 - Pass Details

Date: 18 January 2026
Orbit: 843 x 861 km, 71.0° (Epoch: 15 February)

Event Time Altitude Azimuth Distance (km) Brightness Sun altitude
Exits shadow 05:57:54 10° 334° (NNW) 2,514 5.3 -16.4°
Reaches altitude 10° 05:57:56 10° 334° (NNW) 2,497 5.3 -16.4°
Maximum altitude 06:03:42 83° 63° (ENE) 871 3.3 -15.4°
Drops below altitude 10° 06:09:27 10° 151° (SSE) 2,490 6.3 -14.5°
Sets 06:11:54 0° 152° (SSE) 3,424 7.0 -14.1°
